Stations météo

réclame
Mon MeteoGroup
Solenzara, France (7765): Température de l'air & dewpoint: 12.01.2020 02:00:00 - 18.01.2020 02:00:00 (CET)Solenzara, France (7765): Température de l'air 5cm: 12.01.2020 02:00:00 - 18.01.2020 02:00:00 (CET)Solenzara, France (7765): Température de l'air -20cm: 12.01.2020 02:00:00 - 18.01.2020 02:00:00 (CET)Solenzara, France (7765): Vitesse du vent & gusts: 12.01.2020 02:00:00 - 18.01.2020 02:00:00 (CET)Solenzara, France (7765): Direction du vent: 12.01.2020 02:00:00 - 18.01.2020 02:00:00 (CET)Solenzara, France (7765): reduced air pressure: 12.01.2020 02:00:00 - 18.01.2020 02:00:00 (CET)Solenzara, France (7765): visibility: 12.01.2020 02:00:00 - 18.01.2020 02:00:00 (CET)Solenzara, France (7765): Ensoleillement: 12.01.2020 02:00:00 - 18.01.2020 02:00:00 (CET)Solenzara, France (7765): Quantités de précipitations: 12.01.2020 02:00:00 - 18.01.2020 02:00:00 (CET)
Date & Time tt [°C] td [°C] tt 5cm [°C] tt -20cm [°C] ff [km/h] ff [knt] fx [km/h] fx [knt] dd ppp [hPa] vv [km] sd [min] rr [mm]
18.01.2020 02:00:00 12,9 5,1 8,1 11,7 11 6 42 23 WNW 1020,8 59 0 0,0
18.01.2020 01:00:00 12,4 6,0 8,1 11,7 9 5 28 15 WNW 1020,7 60 0 0,0
18.01.2020 00:00:00 10,7 8,6 8,8 11,7 8 4 16 8 WSW 1021,5 58 0 0,2
17.01.2020 23:00:00 11,5 8,9 9,2 11,7 6 3 26 14 W 1022,9 5 0 0,6
17.01.2020 22:00:00 11,4 8,3 8,6 11,8 10 5 19 10 WSW 1023,2 41 0 0,0
17.01.2020 21:00:00 10,5 7,0 8,4 11,8 5 3 11 6 SW 1023,9 32 0 0,0
17.01.2020 20:00:00 9,9 7,1 7,2 11,8 2 1 10 5 SW 1024,3 24 0 0,0
17.01.2020 19:00:00 9,5 6,9 7,2 11,7 7 4 14 8 W 1025,1 17 0 0,0
17.01.2020 18:00:00 10,1 7,5 7,9 11,7 7 4 14 8 WNW 1025,3 21 0 0,0
17.01.2020 17:00:00 12,2 8,1 9,4 11,6 4 2 7 4 N 1025,2 55 20 0,0
17.01.2020 16:00:00 14,6 9,0 12,8 11,4 6 3 10 5 ENE 1025,1 51 60 0,0
17.01.2020 15:00:00 14,5 8,9 13,4 11,3 6 4 12 6 E 1025,3 48 60 0,0
17.01.2020 14:00:00 14,3 8,0 15,1 11,2 7 4 13 7 ESE 1025,7 60 56 0,0
17.01.2020 13:00:00 14,6 7,6 14,0 11,1 8 5 14 8 SE 1026,1 54 60 0,0
17.01.2020 12:00:00 14,8 6,4 12,6 11,1 8 5 11 6 E 1027,2 60 55 0,0
17.01.2020 11:00:00 14,8 6,1 10,6 11,1 0 0 6 3 N 1027,9 59 51 0,0
17.01.2020 10:00:00 12,6 6,2 8,1 11,1 3 2 18 10 W 1027,8 58 40 0,0
17.01.2020 09:00:00 9,3 4,5 7,4 11,1 9 5 17 9 W 1027,9 0,5 14 0,0
17.01.2020 08:00:00 8,8 4,4 7,3 11,2 11 6 19 10 W 1027,6 57 0 0,0
17.01.2020 07:00:00 8,8 4,8 6,9 11,1 11 6 17 9 W 1027,6 60 0 0,0
17.01.2020 06:00:00 9,6 5,6 8,0 11,2 9 5 14 8 W 1027,5 60 0 0,0
17.01.2020 05:00:00 10,1 6,1 8,5 11,2 4 2 11 6 NW 1027,6 60 0 0,0
17.01.2020 04:00:00 10,4 6,2 8,7 11,1 7 4 11 6 W 1028,1 60 0 0,0
17.01.2020 03:00:00 10,7 6,1 8,9 11,2 7 4 9 5 W 1028,4 59 0 0,0
17.01.2020 02:00:00 10,6 6,3 8,8 11,1 6 3 9 5 W 1028,4 57 0 0,0
17.01.2020 01:00:00 10,9 6,2 8,9 11,1 6 3 13 7 WNW 1028,7 55 0 0,0
17.01.2020 00:00:00 11,1 6,2 9,1 11,1 5 3 13 7 W 1028,9 60 0 0,0
16.01.2020 23:00:00 10,9 6,6 9,3 11,1 9 5 14 8 W 1029,3 51 0 0,0
16.01.2020 22:00:00 10,8 7,3 9,4 11,1 7 4 13 7 W 1029,6 42 0 0,0
16.01.2020 21:00:00 10,9 7,8 9,6 11,1 7 4 11 6 W 1029,8 40 0 0,0
16.01.2020 20:00:00 10,9 8,3 9,7 11,1 6 3 12 6 W 1029,9 35 0 0,0
16.01.2020 19:00:00 11,3 8,5 9,9 11,0 6 3 11 6 W 1030,0 40 0 0,0
16.01.2020 18:00:00 11,6 8,8 10,1 11,0 5 3 8 4 W 1029,7 18 0 0,0
16.01.2020 17:00:00 12,3 8,6 11,3 10,9 3 1 7 4 WSW 1029,4 60 0 0,0
16.01.2020 16:00:00 12,7 8,8 12,4 10,9 5 3 9 5 S 1029,5 60 0 0,0
16.01.2020 15:00:00 13,0 8,1 13,2 10,8 6 3 9 5 SSE 1029,6 60 0 0,0
16.01.2020 14:00:00 13,2 8,1 13,7 10,7 7 4 11 6 SSE 1029,8 59 0 0,0
16.01.2020 13:00:00 13,5 7,3 13,4 10,7 5 3 8 4 SSE 1030,3 60 0 0,0
16.01.2020 12:00:00 12,9 6,9 12,4 10,7 4 2 7 4 NNE 1031,0 59 0 0,0
16.01.2020 11:00:00 12,3 7,2 11,5 10,7 4 2 9 5 NE 1031,3 57 0 0,0
16.01.2020 10:00:00 11,1 5,4 9,0 10,8 6 3 13 7 WNW 1031,3 57 13 0,0
16.01.2020 09:00:00 10,0 4,8 5,3 10,8 2 1 17 9 NNW 1031,0 44 60 0,0
16.01.2020 08:00:00 7,3 3,3 4,4 10,9 11 6 20 11 W 1030,7 60 0 0,0
16.01.2020 07:00:00 7,6 3,4 4,4 10,9 10 5 19 10 W 1030,4 60 0 0,0
16.01.2020 06:00:00 7,9 3,9 4,3 11,0 11 6 21 11 W 1030,0 60 0 0,0
16.01.2020 05:00:00 7,1 4,2 4,3 11,0 9 5 20 11 W 1029,9 57 0 0,0
16.01.2020 04:00:00 7,8 4,2 5,8 11,1 10 5 18 10 W 1029,9 55 0 0,0
16.01.2020 03:00:00 7,4 4,2 5,8 11,1 11 6 19 11 W 1030,0 48 0 0,0
16.01.2020 02:00:00 7,1 4,1 5,6 11,2 12 7 19 11 W 1030,0 36 0 0,0
16.01.2020 01:00:00 7,1 3,9 5,5 11,3 12 6 20 11 W 1030,0 35 0 0,0
16.01.2020 00:00:00 7,2 4,2 5,2 11,3 11 6 20 11 W 1030,3 34 0 0,0
15.01.2020 23:00:00 7,3 4,4 5,0 11,3 10 6 18 10 W 1030,0 36 0 0,0
15.01.2020 22:00:00 7,6 4,7 5,5 11,4 10 5 18 10 W 1029,7 38 0 0,0
15.01.2020 21:00:00 8,0 5,1 6,3 11,4 10 6 18 10 W 1029,6 37 0 0,0
15.01.2020 20:00:00 8,2 5,5 6,2 11,3 10 5 16 9 W 1029,7 39 0 0,0
15.01.2020 19:00:00 8,8 6,2 6,7 11,3 9 5 17 9 W 1029,5 41 0 0,0
15.01.2020 18:00:00 9,6 6,9 7,6 11,3 8 4 13 7 W 1029,1 39 0 0,0
15.01.2020 17:00:00 11,6 7,1 10,0 11,1 6 4 23 12 SSW 1028,4 51 32 0,0
15.01.2020 16:00:00 13,1 8,0 12,7 11,0 16 9 24 13 S 1028,3 60 60 0,0
15.01.2020 15:00:00 13,9 7,9 14,3 10,9 17 9 25 13 SSE 1028,2 60 60 0,0
15.01.2020 14:00:00 14,2 7,7 15,7 10,8 15 8 23 13 SSE 1028,3 60 60 0,0
15.01.2020 13:00:00 14,4 8,6 14,6 10,7 15 8 22 12 SE 1028,5 60 60 0,0
15.01.2020 12:00:00 13,6 7,1 11,7 10,7 6 4 13 7 ESE 1029,2 20 60 0,0
15.01.2020 11:00:00 13,7 5,8 9,4 10,7 2 1 6 3 NNE 1029,7 31 60 0,0
15.01.2020 10:00:00 11,2 4,6 6,8 10,8 4 2 14 8 NNW 1029,4 47 60 0,0
15.01.2020 09:00:00 8,2 1,8 4,7 10,9 9 5 19 10 W 1029,0 48 60 0,0
15.01.2020 08:00:00 6,5 1,4 3,9 11,0 11 6 21 12 W 1028,8 60 0 0,0
15.01.2020 07:00:00 6,3 1,4 4,0 11,0 11 6 21 11 W 1028,7 60 0 0,0
15.01.2020 06:00:00 6,5 1,6 3,7 11,1 12 6 21 12 W 1028,2 60 0 0,0
15.01.2020 05:00:00 6,3 1,6 3,7 11,1 10 5 22 12 W 1027,9 60 0 0,0
15.01.2020 04:00:00 6,9 1,6 5,0 11,2 13 7 24 13 W 1027,8 60 0 0,0
15.01.2020 03:00:00 6,9 1,6 4,5 11,3 10 5 18 10 W 1028,2 60 0 0,0
15.01.2020 02:00:00 7,0 1,9 4,7 11,3 10 5 16 9 W 1028,1 60 0 0,0
15.01.2020 01:00:00 6,9 2,2 5,5 11,4 10 6 18 10 W 1028,1 60 0 0,0
15.01.2020 00:00:00 7,5 2,2 5,6 11,5 12 6 18 10 W 1028,2 60 0 0,0
14.01.2020 23:00:00 7,5 2,6 5,6 11,5 10 6 19 10 W 1028,1 60 0 0,0
14.01.2020 22:00:00 7,6 2,9 5,6 11,5 11 6 18 10 W 1027,9 59 0 0,0
14.01.2020 21:00:00 7,9 3,4 5,5 11,6 11 6 17 9 W 1027,9 59 0 0,0
14.01.2020 20:00:00 8,2 3,8 6,1 11,5 10 5 16 8 W 1027,8 54 0 0,0
14.01.2020 19:00:00 8,8 4,4 6,7 11,5 10 6 16 9 W 1027,5 56 0 0,0
14.01.2020 18:00:00 9,5 5,3 6,5 11,4 9 5 14 8 W 1027,1 58 0 0,0
14.01.2020 17:00:00 11,6 6,3 7,6 11,4 4 2 8 4 NW 1026,7 54 14 0,0
14.01.2020 16:00:00 13,9 6,3 12,0 11,2 5 3 10 5 ENE 1026,2 55 60 0,0
14.01.2020 15:00:00 14,4 5,5 13,3 11,1 6 4 13 7 E 1025,7 60 60 0,0
14.01.2020 14:00:00 14,9 5,4 14,4 11,0 6 3 13 7 E 1025,3 20 60 0,0
14.01.2020 13:00:00 14,6 5,1 14,8 10,9 7 4 14 8 SE 1025,6 57 60 0,0
14.01.2020 12:00:00 14,3 6,6 15,0 10,9 10 5 14 8 SE 1026,1 46 60 0,0
14.01.2020 11:00:00 14,1 4,9 9,0 10,9 8 4 11 6 S 1026,5 60 60 0,0
14.01.2020 10:00:00 11,0 2,3 7,0 11,0 6 3 17 9 W 1026,4 60 60 0,0
14.01.2020 09:00:00 8,4 1,1 4,7 11,0 9 5 18 10 W 1026,0 60 60 0,0
14.01.2020 08:00:00 6,2 0,9 4,5 11,1 11 6 21 12 W 1025,5 53 1 0,0
14.01.2020 07:00:00 6,2 0,9 4,7 11,2 11 6 20 11 W 1025,5 60 0 0,0
14.01.2020 06:00:00 6,1 1,4 4,5 11,3 11 6 23 13 W 1025,0 60 0 0,0
14.01.2020 05:00:00 6,2 2,1 5,1 11,3 12 7 21 11 W 1024,7 60 0 0,0
14.01.2020 04:00:00 6,2 2,6 5,3 11,4 12 7 21 12 W 1024,7 59 0 0,0
14.01.2020 03:00:00 6,5 3,3 5,5 11,4 12 6 19 10 W 1025,1 59 0 0,0
14.01.2020 02:00:00 6,9 3,7 5,8 11,5 10 6 20 11 W 1025,0 60 0 0,0
14.01.2020 01:00:00 7,2 4,0 5,8 11,5 12 6 20 11 W 1024,9 58 0 0,0
14.01.2020 00:00:00 7,4 4,4 5,1 11,5 11 6 18 10 W 1025,0 55 0 0,0
13.01.2020 23:00:00 7,4 4,4 5,1 11,6 7 4 16 9 W 1025,1 44 0 0,0
13.01.2020 22:00:00 7,9 4,7 5,9 11,6 8 4 16 8 WNW 1025,0 55 0 0,0
13.01.2020 21:00:00 9,1 5,5 7,6 11,6 8 5 16 9 W 1025,1 46 0 0,0
13.01.2020 20:00:00 10,1 6,1 8,5 11,5 8 4 12 6 W 1025,0 54 0 0,0
13.01.2020 19:00:00 10,8 6,7 9,3 11,5 6 3 10 5 W 1025,0 37 0 0,0
13.01.2020 18:00:00 11,6 7,3 10,0 11,4 5 3 8 4 W 1024,9 22 0 0,0
13.01.2020 17:00:00 11,9 6,4 11,1 11,4 3 2 10 6 SE 1024,7 20 0 0,0
13.01.2020 16:00:00 12,5 6,5 12,2 11,3 6 4 11 6 SSE 1024,7 60 0 0,0
13.01.2020 15:00:00 13,0 6,3 13,2 11,1 8 4 17 9 SE 1024,7 60 47 0,0
13.01.2020 14:00:00 13,9 6,0 14,5 11,0 10 5 17 9 SE 1024,8 58 60 0,0
13.01.2020 13:00:00 14,1 6,2 - - 9 5 - - ESE 1025,4 60 - -
13.01.2020 12:00:00 14,3 4,8 11,2 10,9 7 4 11 6 ESE 1026,2 60 60 0,0
13.01.2020 11:00:00 14,1 3,5 9,5 10,9 0 0 12 7 N 1026,5 57 60 0,0
13.01.2020 10:00:00 10,9 2,7 7,3 11,0 7 4 21 11 W 1026,6 43 60 0,0
13.01.2020 09:00:00 8,5 1,6 5,1 11,0 11 6 24 13 W 1026,3 43 42 0,0
13.01.2020 08:00:00 7,0 1,7 5,1 11,1 13 7 26 14 W 1026,1 60 0 0,0
13.01.2020 07:00:00 6,9 2,2 5,1 11,2 14 8 24 13 W 1026,0 60 0 0,0
13.01.2020 06:00:00 7,1 2,2 5,0 11,2 13 7 24 13 W 1025,7 60 0 0,0
13.01.2020 05:00:00 6,8 2,3 4,8 11,3 14 8 23 13 W 1025,7 60 0 0,0
13.01.2020 04:00:00 6,8 3,0 5,1 11,4 11 6 20 11 W 1025,9 60 0 0,0
13.01.2020 03:00:00 6,9 3,3 3,6 11,4 13 7 19 11 W 1025,9 54 0 0,0
13.01.2020 02:00:00 6,7 3,5 3,1 11,5 9 5 16 8 W 1026,2 41 0 0,0
13.01.2020 01:00:00 6,4 3,5 3,8 11,5 4 2 22 12 NW 1026,5 38 0 0,0
13.01.2020 00:00:00 8,1 3,9 6,5 11,6 12 6 20 11 W 1026,5 51 0 0,0
12.01.2020 23:00:00 8,4 4,4 6,7 11,6 11 6 20 11 W 1026,6 46 0 0,0
12.01.2020 22:00:00 8,6 4,8 6,4 11,6 10 6 20 11 W 1026,6 39 0 0,0
12.01.2020 21:00:00 8,9 5,1 6,7 11,6 10 6 20 11 W 1026,7 40 0 0,0
12.01.2020 20:00:00 9,4 5,8 7,5 11,6 9 5 17 9 W 1026,5 37 0 0,0
12.01.2020 19:00:00 10,5 6,6 7,9 11,6 8 4 12 7 W 1026,7 34 0 0,0
12.01.2020 18:00:00 10,4 6,5 7,5 11,5 5 3 8 4 WNW 1026,4 15 0 0,0
12.01.2020 17:00:00 11,5 6,2 8,0 11,5 5 3 7 4 NW 1026,3 44 7 0,0
12.01.2020 16:00:00 13,5 6,1 11,6 11,4 5 3 11 6 ENE 1026,2 47 56 0,0
12.01.2020 15:00:00 14,3 6,1 13,0 11,3 7 4 13 7 E 1025,7 36 60 0,0
12.01.2020 14:00:00 14,5 6,3 13,8 11,2 9 5 18 10 ENE 1025,9 20 60 0,0
12.01.2020 13:00:00 14,3 6,9 13,8 11,1 11 6 18 10 ENE 1026,8 53 60 0,0
12.01.2020 12:00:00 14,1 6,4 13,2 11,1 9 5 19 10 NNE 1027,8 51 60 0,0
12.01.2020 11:00:00 13,8 6,2 11,6 11,1 11 6 19 10 N 1028,7 60 60 0,0
12.01.2020 10:00:00 12,5 4,9 7,7 11,2 11 6 17 9 NNW 1028,1 60 54 0,0
12.01.2020 09:00:00 9,6 5,0 6,9 11,3 5 3 15 8 NW 1027,9 43 32 0,0
12.01.2020 08:00:00 9,9 4,3 7,1 11,3 10 5 22 12 NNW 1027,6 53 0 0,0
12.01.2020 07:00:00 9,7 4,1 6,3 11,4 11 6 19 10 NNW 1027,5 59 0 0,0
12.01.2020 06:00:00 9,0 3,4 6,8 11,4 12 6 23 13 N 1027,2 60 0 0,0
12.01.2020 05:00:00 8,1 2,7 7,2 11,5 15 8 26 14 N 1026,8 60 0 0,0
12.01.2020 04:00:00 11,1 3,4 9,0 11,5 21 11 29 15 N 1027,0 60 0 0,0
12.01.2020 03:00:00 10,5 3,1 7,9 11,6 20 11 30 16 N 1026,8 59 0 0,0
12.01.2020 02:00:00 9,4 3,4 4,6 11,6 14 8 24 13 NNW 1026,2 60 0 0,0

tt = Température de l'air
td = dewpoint
tt 5cm = Température de l'air 5cm
tt -20cm = Température de l'air -20cm
ff = Vitesse du vent
fx = gusts
dd = Direction du vent
ppp = reduced air pressure
vv = visibility
sd = Ensoleillement
rr = Quantités de précipitations

stations d'obs. à proximité